{"data":{"norad_id":55306,"intl_designator":"2023-010AP","name":"STARLINK-5295","alt_names":[],"object_type":"PAYLOAD","status":"ACTIVE","operator":null,"country":"US","launch_date":"2023-01-19","launch_site_code":"AFWTR","launch_vehicle":null,"mission":null,"orbit_class":"UNKNOWN","rcs_meters":null,"size_class":null,"mass_kg":null,"dimensions":null,"purposes":["comms"],"wikipedia_slug":null,"has_3d_model":false,"image_url":null,"decayed_at":null,"tle_current":{"epoch":"2026-09-20T22:00:03.000096Z","epoch_age_seconds":56769,"freshness":"FRESH","line1":"1 55306U 23010AP  26263.91670139  .00058207  00000+0  39234-2 0  9994","line2":"2 55306  69.9997 232.2717 0001606 319.7623  58.9228 15.06341060  5766","mean_motion":15.0634106,"eccentricity":0.0001606,"inclination_deg":69.9997,"raan_deg":232.2717,"arg_perigee_deg":319.7623,"mean_anomaly_deg":58.9228,"bstar":0.0039234,"rev_number":576,"period_min":95.595880523897,"perigee_km":546.27996644892,"apogee_km":548.50444643003,"semimajor_km":6925.5292064395,"source":"CELESTRAK","updated_at":"2026-09-21T09:00:33.173210Z"}}}